User: anonymous   Login
Location: Chandolas
(44.4033°N, 4.2533°E)
Time: 11:46:16
(UTC+00:00)
Language:

Gbstr 26 Del rocket - Orbit

View from above orbital plane
View from above orbital plane
View from above satellite
View from above satellite

Ground track
Ground track

The orbit data is extracted from the following two-line orbital elements,

1 25876U 99041E   20028.74614282 -.00000112  00000-0  20458-4 0  9995
2 25876  51.7673 145.7971 0530534 293.8161  60.8019 14.04384931 48871
Epoch (UTC): 28 January 2020 17:54:26
Eccentricity: 0.0530534
inclination: 51.7673°
perigee height: 493 km
apogee height: 1263 km
right ascension of ascending node: 145.7971°
argument of perigee: 293.8161°
revolutions per day: 14.04384931
mean anomaly at epoch: 60.8019°
orbit number at epoch: 4887

The dashed part of the orbit path shows where the satellite is in the earth's shadow,  

DLR